Other Surface Observations
Issued by NWS

Home | Current Version | Previous Version | Text Only | Print | Product List | Glossary On
Versions: 1 2 3 4 5 6 7 8 9 10 11 12 13 14 15 16 17 18 19 20 21 22 23 24 25 26 27 28 29 30 31 32 33 34 35 36 37 38 39 40 41 42 43 44 45 46 47 48 49 50
000
SXUS52 KTAE 161618
OSOTAE
OSOTAE
North Florida/South Alabama/Southwest Georgia Weather Roundup
National Weather Service Tallahassee Florida
1100 AM EST SAT DEC 16 2017

Note: "fair" indicates few or no clouds below 12,000 feet with no
significant weather and/or obstructions to visibility.

!FLZ017-115-028-034-025-161700
...North Florida...

CITY           SKY/WX    TMP DP  RH WIND       PRES   REMARKS
TALLAHASSEE    MOSUNNY   54  29  38 NE7       30.31S
APALACHICOLA   SUNNY     55  35  47 NE9       30.29F
PERRY          SUNNY     56  30  36 NE7       30.31S
CROSS CITY     PTSUNNY   55  35  47 E8        30.34S
JACKSONVILLE   PTSUNNY   55  30  38 E6        30.31S
$$

!FLZ112-006-005-002-011-161700
...Florida Panhandle...

CITY           SKY/WX    TMP DP  RH WIND       PRES   REMARKS
MARIANNA       SUNNY     49  28  44 E7        30.33R
BONIFAY        NOT AVBL
PANAMA CITY NW FAIR      52  29  41 NE8       30.31R
TYNDALL AFB    SUNNY     52  32  46 E6        30.31S
TYND DRONE APT FAIR      53  33  47 E8        30.30S
DE FUNIAK SPR  FAIR      46  28  49 E7        30.33S WCI  43
EGLIN AFB      PTSUNNY   51  26  38 NE5       30.31S
DESTIN         SUNNY     52  29  41 NE8       30.32R
HURLBURT       MOSUNNY   52  28  39 E8        30.30S
CRESTVIEW      CLOUDY    49  28  44 NE6       30.34S
PENSACOLA      CLOUDY    50  30  46 VRB6      30.32R
$$

!ALZ063-066-161700
...South Alabama...

CITY           SKY/WX    TMP DP  RH WIND       PRES   REMARKS
DOTHAN         SUNNY     48  29  47 E5        30.36S
OZARK CAIRNS   CLOUDY    47  26  44 E8        30.33R WCI  43
FT RUCKER HELI CLOUDY    47  28  47 NE3       30.33R
RUCKER HELI 3    N/A     46  27  47 E6        30.33R WCI  43
RUCKER HELI 2  FAIR      47  27  47 E5        30.33R WCI  44
FLORALA APT    PTSUNNY   46  28  49 E7        30.35S WCI  42
ANDALUSIA      CLOUDY    50  27  40 E7        30.32S
TROY           MOSUNNY   42  28  57 E5        30.34S WCI  39
EUFALA         FAIR      45  29  53 N3        30.34R
MOBILE         CLOUDY    45  30  55 NE8       30.32S WCI  41
$$

!GAZ120>161-161700
...Southwest and South Central Georgia...

CITY           SKY/WX    TMP DP  RH WIND       PRES   REMARKS
THOMASVILLE    FAIR      50  32  50 E6        30.33F
BAINBRIDGE     SUNNY     50  34  53 NE6       30.34S
MOODY AFB      SUNNY     50  28  42 CALM      30.31S
VALDOSTA       SUNNY     51  30  44 N6        30.33R
MOULTRIE       SUNNY     48  32  53 N3        30.33F
BLAKELY        NOT AVBL
ALBANY         SUNNY     50  28  42 E5        30.36S
TIFTON         FAIR      48  29  46 NE6       30.32S
FITZGERALD     FAIR      49  29  46 CALM      30.35S
CORDELE        FAIR      47  29  50 CALM      30.35S
AMERICUS       FAIR      45  21  39 NE6       30.35S WCI  41
HOMERVILLE     FAIR      50  32  50 CALM      30.33S
$$

!GMZ750-755-770-775-161700
...Coastal and Buoy Obs...

STATION/POSITION TIME  TEMP    WIND        PRES    VSBY  WAVE
                       AIR SEA DIR/SP/G                  HT/PER
                 (UTC) (F)     (DEG/KT/KT) (MB)    (MI)  (FT/S)
KEATON BEACH     1600   53      50/  9/ 12 1025.4R
CEDAR KEY        1600   54      60/ 10/ 11 1025.5S
C TOWER          1600   54      70/ 14/ 16 1025.9R
APALACHICOLA BUO NOT AVBL
PANAMA CITY BUOY 1550   63 74   70/ 12/ 14 1024.7R         2/ 4
MOBILE BUOY      1600   62 70   70/ 10/ 14 1025.0
ORANGE BCH AL BU NOT AVBL
$$




USA.gov is the U.S. government's official web portal to all federal, state and local government web resources and services.